Wind_Speed
30 30 30 30 29 28 28 28 28 28 28 26 25 28 31 36 38 40 41 38 37 38 39 38 36 34 34 33 33 35 37 37 36 36 37 36 36 36 35 35 34 32
28 28 28 29 28 27 28 29 29 28 28 27 26 27 29 33 38 40 40 40 39 38 39 39 37 37 37 34 33 35 38 38 36 35 34 33 33 34 34 33 34 34
25 26 26 27 27 26 26 28 29 28 28 28 27 25 25 30 36 40 41 40 39 37 36 37 38 39 39 38 36 36 39 41 40 39 37 34 32 31 31 31 31 33
23 23 24 25 26 25 25 25 27 28 28 29 28 25 24 26 31 36 39 38 37 36 36 37 38 41 42 41 40 39 42 43 41 39 39 37 34 30 29 31 30 30
20 21 22 23 23 24 24 23 25 27 27 28 28 26 24 25 25 28 33 36 36 36 37 38 40 41 43 42 42 42 44 44 39 38 39 38 36 32 30 32 33 31
18 19 20 20 21 22 22 22 22 24 26 26 27 26 25 25 24 23 26 30 33 34 34 37 40 42 43 43 42 43 45 45 40 38 39 37 36 35 32 33 35 34
18 18 18 19 19 20 21 21 20 22 24 25 26 26 26 26 25 24 23 23 27 30 32 33 36 39 41 42 42 42 45 47 43 39 39 37 34 34 35 35 36 36
19 19 19 19 19 19 20 20 20 20 22 24 24 24 25 25 25 25 23 21 21 25 29 29 30 33 35 37 39 40 42 44 42 40 41 39 36 35 36 37 39 39
19 19 20 20 20 19 20 20 21 20 21 22 22 21 21 23 23 22 21 20 19 20 23 25 27 29 32 34 36 37 38 39 39 40 40 39 39 39 38 40 42 43
18 19 20 20 20 20 20 21 21 21 21 21 21 20 19 20 20 20 19 18 18 18 19 21 23 26 29 32 32 31 31 33 34 36 35 35 38 41 41 42 45 47
16 17 18 20 20 20 21 21 22 22 22 22 21 20 19 19 19 18 18 17 17 18 18 18 19 22 24 27 27 26 26 28 30 31 32 32 34 36 38 39 42 45
14 15 16 18 19 20 21 21 22 23 23 23 22 20 19 19 19 17 17 17 16 17 18 17 18 19 20 22 23 24 25 27 28 29 30 31 31 32 33 34 36 39
14 14 15 16 17 17 18 19 20 23 25 24 24 23 21 20 19 18 17 17 17 17 17 18 18 19 20 21 22 23 24 25 26 27 28 29 30 32 33 35 36 37
16 16 15 15 16 17 18 17 18 20 24 26 25 24 23 22 21 19 18 17 18 18 18 18 19 19 20 21 22 23 24 25 26 27 27 28 29 32 35 37 38 38
15 16 16 15 16 17 17 17 17 17 21 24 26 25 25 24 23 22 21 20 20 20 20 21 21 22 22 23 24 25 25 26 27 28 28 28 28 30 34 38 39 39
14 15 15 15 15 16 16 16 16 17 18 21 23 25 25 26 26 25 25 24 23 23 23 23 24 25 25 25 26 26 26 27 27 28 29 29 29 30 32 35 38 40
13 14 14 14 14 15 16 15 15 16 17 19 21 23 25 26 27 27 27 27 27 26 25 25 26 27 27 27 27 27 27 28 28 29 30 30 31 31 32 33 36 39
12 13 13 13 13 14 14 14 14 14 16 17 19 20 22 24 25 26 27 28 28 28 27 27 28 28 29 29 28 29 29 29 30 30 31 32 32 32 32 33 35 38
11 12 12 13 13 13 13 14 13 13 14 15 16 16 17 19 21 23 24 25 26 28 28 29 29 30 30 31 31 31 30 30 30 31 32 33 34 34 33 33 34 36
11 11 11 12 13 14 15 15 14 14 14 15 15 15 15 16 18 19 20 22 23 25 27 28 30 31 31 32 33 33 33 33 32 32 32 33 34 35 36 35 35 35
11 11 10 11 11 12 14 15 15 16 16 17 17 17 17 17 18 18 19 20 21 22 24 26 28 30 31 32 33 34 35 35 35 34 34 35 35 36 37 37 37 37
12 11 10 10 10 11 11 12 13 14 15 17 18 19 19 19 19 19 19 20 21 21 23 24 26 28 30 31 32 34 35 36 36 37 37 37 37 37 37 38 38 38
12 12 11 11 11 11 11 11 11 12 12 14 16 18 20 21 21 21 21 21 21 22 22 23 24 26 28 30 31 32 33 35 36 37 39 39 39 39 40 40 40 40
12 12 12 12 12 12 12 12 12 12 12 12 13 14 16 19 21 22 22 23 23 23 23 23 24 25 27 29 30 31 32 32 34 35 37 39 40 40 41 42 42 43
13 13 13 14 13 13 13 13 14 14 13 13 13 13 14 15 17 20 22 23 24 25 25 25 25 25 26 27 29 31 31 32 33 33 35 36 38 39 40 41 43 45
14 15 15 16 16 16 15 15 15 15 16 16 16 15 15 15 16 17 19 21 23 25 26 27 28 28 28 28 29 30 31 32 33 34 34 34 35 36 38 39 41 44
Wind_Direction
266 263 258 255 256 256 254 252 249 249 252 253 248 245 242 236 232 232 235 234 232 231 230 232 234 233 234 236 234 230 229 231 235 238 240 243 245 244 244 245 249 251
267 264 259 256 255 256 256 253 250 247 249 252 252 250 247 241 235 233 237 239 238 235 229 227 229 232 234 235 236 234 229 229 233 237 240 242 243 243 244 246 249 250
267 265 262 258 257 257 258 255 252 248 247 250 253 254 253 247 239 235 236 239 242 242 236 232 232 234 236 236 237 237 233 230 231 235 238 238 238 240 241 245 249 251
266 266 264 262 260 260 259 258 255 252 249 250 252 255 256 255 247 240 240 242 244 245 243 240 237 237 239 240 238 237 237 236 234 237 240 239 237 236 234 238 245 250
263 264 264 264 264 263 262 260 257 256 254 252 253 254 254 258 257 250 246 246 247 248 247 245 243 241 241 243 241 238 239 242 242 242 243 243 243 239 234 236 240 245
261 261 262 264 267 267 266 263 260 259 259 258 256 255 254 257 261 259 254 252 251 251 250 249 247 245 244 246 246 243 242 243 245 246 245 245 248 246 241 241 241 243
260 259 259 262 266 269 269 267 263 261 261 262 261 259 256 256 261 263 262 259 255 254 253 251 249 247 247 249 249 248 246 244 244 247 245 245 249 249 246 246 246 245
264 261 259 258 261 266 269 269 267 263 262 263 265 264 261 259 262 265 266 266 259 253 252 252 249 248 249 250 249 249 249 246 245 247 246 245 249 251 249 249 247 245
273 268 264 261 259 261 265 267 268 266 263 264 266 267 265 262 263 265 267 269 266 259 255 253 250 248 249 250 249 247 247 247 246 246 246 247 249 251 251 250 246 244
281 276 271 267 264 261 262 263 265 264 262 262 264 265 265 264 264 265 266 267 266 262 259 256 253 251 251 254 255 253 251 252 252 252 251 251 251 252 252 251 248 245
287 282 276 271 269 268 266 263 261 261 261 261 261 262 263 263 264 264 264 264 263 261 260 258 256 255 256 259 263 263 260 259 258 258 257 254 253 254 255 255 253 249
293 288 282 277 273 272 272 269 262 256 257 259 260 261 263 264 264 262 260 260 261 261 261 260 256 254 255 257 258 258 258 258 258 257 257 255 253 253 253 254 254 252
298 294 288 282 277 273 272 272 264 252 248 253 258 261 264 266 266 264 258 254 254 255 257 258 257 254 252 253 253 253 254 254 254 255 255 254 252 250 250 251 251 251
301 298 294 287 281 276 270 269 266 254 245 245 252 258 261 263 265 266 262 255 251 251 251 252 253 252 251 251 251 252 252 251 252 253 254 253 250 248 249 250 250 251
305 304 301 293 285 281 276 271 269 261 250 245 248 254 258 260 261 263 264 261 257 254 252 250 250 251 252 253 253 253 254 253 253 254 256 256 253 251 249 250 250 250
311 310 308 300 291 285 282 277 273 268 260 253 253 256 259 262 263 263 263 264 263 261 258 256 254 255 256 256 257 257 257 256 255 256 257 258 258 257 255 253 251 251
311 313 313 309 300 291 286 283 278 272 267 263 260 260 262 264 265 265 265 265 266 264 263 262 260 260 260 259 259 259 258 257 257 256 257 258 259 259 259 258 256 256
305 308 311 312 308 301 295 293 289 281 274 269 265 264 264 264 265 266 267 267 267 266 264 263 262 262 263 263 262 260 258 256 256 256 256 257 258 259 259 259 259 259
311 305 305 305 305 305 303 301 298 292 284 278 274 270 267 267 267 267 267 267 267 266 265 264 262 261 262 262 262 262 260 257 256 256 256 256 258 259 259 259 258 258
339 325 314 306 301 298 298 297 295 292 288 284 282 279 276 275 274 273 271 269 266 264 263 263 262 261 260 261 261 262 261 260 258 256 256 256 257 258 259 260 260 260
348 345 338 328 317 307 301 296 291 288 285 283 282 281 279 278 278 278 277 275 272 267 263 262 261 261 260 260 260 260 261 261 259 258 257 256 257 258 259 260 261 261
337 338 338 337 333 327 321 314 307 299 291 286 281 279 278 277 277 277 277 277 276 274 269 266 263 262 262 261 260 260 260 260 260 259 258 257 256 257 258 260 261 261
337 334 333 331 329 327 325 323 322 319 313 304 293 285 280 277 276 275 276 276 277 276 276 274 270 268 266 265 263 263 262 262 261 260 260 259 258 257 257 259 260 261
341 339 338 335 332 330 327 324 321 320 318 316 310 301 291 283 278 275 274 275 276 276 277 277 277 275 272 270 268 267 267 266 264 262 261 260 260 259 259 258 259 260
348 346 345 342 340 337 334 331 328 324 321 317 314 310 305 297 289 283 278 275 274 275 276 276 277 277 276 275 273 272 270 270 268 267 265 264 262 261 260 259 259 259
355 353 351 348 346 343 339 336 332 328 325 321 317 313 309 305 299 294 288 283 279 277 276 276 276 276 277 277 277 276 275 274 272 271 269 268 266 264 261 260 259 259
Height
3097 3099 3101 3103 3105 3107 3108 3109 3110 3111 3112 3113 3114 3115 3115 3116 3117 3118 3118 3119 3119 3121 3123 3125 3128 3131 3132 3134 3135 3137 3139 3141 3144 3146 3148 3150 3152 3152 3153 3155 3157 3157
3095 3096 3098 3100 3102 3104 3105 3106 3107 3107 3109 3110 3111 3112 3113 3115 3116 3116 3117 3117 3118 3119 3120 3122 3124 3127 3129 3131 3133 3134 3135 3137 3140 3142 3144 3146 3147 3148 3149 3151 3152 3153
3093 3094 3095 3097 3099 3101 3102 3103 3104 3104 3106 3107 3108 3110 3111 3112 3113 3114 3114 3115 3116 3119 3121 3121 3123 3125 3126 3128 3130 3131 3131 3132 3134 3136 3138 3140 3141 3143 3145 3146 3147 3148
3091 3092 3093 3095 3096 3098 3099 3100 3101 3102 3103 3104 3105 3107 3109 3109 3110 3111 3113 3114 3115 3117 3118 3119 3121 3122 3123 3124 3126 3127 3127 3128 3130 3132 3134 3136 3138 3139 3140 3141 3142 3144
3090 3091 3092 3093 3094 3095 3097 3098 3099 3099 3100 3101 3102 3104 3106 3106 3107 3109 3110 3112 3113 3115 3115 3116 3118 3119 3120 3121 3122 3123 3124 3125 3128 3130 3131 3134 3136 3138 3139 3138 3139 3140
3089 3089 3090 3091 3092 3093 3094 3096 3097 3098 3098 3099 3100 3102 3103 3104 3105 3106 3107 3109 3110 3111 3112 3113 3114 3116 3117 3118 3119 3120 3121 3122 3124 3126 3128 3131 3134 3136 3138 3138 3138 3138
3087 3088 3089 3090 3091 3092 3092 3094 3096 3096 3096 3097 3097 3099 3101 3102 3102 3103 3104 3105 3106 3107 3108 3109 3111 3112 3114 3114 3115 3116 3118 3119 3121 3122 3124 3127 3130 3133 3135 3136 3136 3136
3085 3086 3087 3088 3089 3090 3091 3092 3093 3095 3095 3095 3095 3096 3097 3098 3099 3100 3101 3102 3104 3104 3105 3106 3107 3109 3110 3110 3110 3112 3114 3115 3117 3118 3120 3123 3126 3128 3130 3132 3132 3133
3084 3084 3085 3086 3087 3088 3089 3090 3091 3093 3093 3094 3094 3094 3095 3096 3096 3097 3099 3100 3101 3102 3102 3103 3104 3106 3106 3106 3106 3108 3109 3110 3111 3113 3115 3119 3121 3123 3125 3127 3127 3128
3082 3083 3083 3084 3085 3086 3087 3088 3089 3090 3091 3092 3092 3092 3093 3094 3094 3095 3096 3098 3099 3099 3100 3100 3101 3102 3103 3102 3102 3103 3104 3105 3107 3109 3111 3114 3116 3118 3120 3121 3122 3123
3081 3081 3081 3082 3082 3083 3084 3086 3087 3088 3089 3090 3090 3091 3091 3092 3093 3094 3095 3096 3096 3097 3097 3098 3098 3099 3100 3100 3100 3100 3101 3103 3105 3106 3108 3110 3112 3114 3115 3116 3117 3118
3079 3079 3080 3080 3080 3081 3082 3083 3084 3086 3087 3087 3088 3088 3089 3090 3091 3092 3093 3093 3094 3095 3095 3095 3096 3096 3097 3098 3098 3098 3099 3100 3102 3103 3104 3106 3108 3109 3111 3112 3112 3113
3078 3078 3078 3078 3079 3079 3080 3080 3081 3082 3084 3085 3085 3086 3087 3087 3088 3089 3090 3091 3091 3092 3093 3093 3093 3094 3094 3095 3095 3096 3096 3097 3098 3100 3101 3102 3103 3105 3106 3107 3107 3108
3078 3077 3077 3077 3077 3077 3078 3078 3078 3079 3080 3082 3082 3083 3084 3084 3085 3086 3087 3088 3088 3089 3090 3090 3091 3091 3092 3092 3092 3093 3094 3095 3096 3097 3098 3099 3100 3101 3101 3102 3103 3103
3077 3076 3076 3076 3076 3076 3076 3076 3076 3077 3077 3078 3080 3080 3081 3081 3082 3082 3083 3084 3085 3085 3086 3087 3088 3088 3089 3090 3090 3091 3092 3093 3094 3094 3095 3096 3096 3097 3097 3098 3098 3099
3076 3075 3075 3074 3074 3074 3074 3074 3075 3075 3075 3076 3077 3077 3078 3078 3078 3079 3079 3080 3081 3081 3082 3083 3084 3086 3087 3087 3088 3089 3090 3090 3091 3092 3092 3092 3093 3094 3094 3094 3095 3095
3075 3075 3074 3073 3073 3073 3073 3073 3073 3073 3074 3074 3074 3075 3075 3075 3075 3076 3076 3076 3077 3077 3079 3079 3080 3081 3082 3083 3084 3085 3086 3087 3087 3088 3088 3089 3089 3090 3091 3091 3091 3092
3074 3074 3073 3073 3073 3072 3072 3072 3072 3071 3071 3072 3072 3072 3072 3072 3073 3073 3073 3074 3074 3074 3075 3076 3076 3077 3078 3078 3079 3080 3081 3082 3083 3084 3084 3085 3085 3085 3086 3087 3087 3087
3073 3073 3072 3072 3072 3071 3071 3071 3070 3070 3069 3069 3069 3070 3069 3069 3070 3070 3070 3071 3071 3071 3072 3072 3072 3073 3073 3074 3074 3075 3076 3077 3078 3079 3079 3080 3080 3081 3081 3082 3082 3083
3073 3072 3072 3071 3071 3070 3070 3069 3069 3068 3068 3067 3067 3067 3067 3067 3067 3067 3067 3067 3068 3068 3068 3068 3068 3068 3069 3069 3069 3070 3071 3072 3073 3074 3074 3075 3075 3076 3076 3077 3077 3077
3073 3072 3071 3070 3070 3069 3068 3068 3067 3066 3066 3065 3065 3065 3065 3065 3064 3064 3064 3064 3064 3064 3064 3064 3064 3064 3064 3065 3065 3065 3066 3066 3067 3068 3069 3069 3070 3071 3071 3071 3072 3072
3072 3071 3071 3070 3069 3068 3067 3066 3065 3065 3064 3063 3062 3062 3062 3062 3062 3062 3062 3061 3061 3061 3060 3060 3060 3060 3060 3060 3060 3061 3061 3061 3062 3063 3063 3064 3065 3065 3066 3066 3066 3067
3071 3070 3070 3069 3068 3067 3066 3065 3064 3063 3062 3061 3060 3060 3059 3059 3059 3059 3059 3058 3058 3058 3057 3057 3057 3056 3056 3055 3056 3056 3056 3056 3057 3057 3058 3059 3059 3060 3060 3061 3061 3061
3070 3069 3068 3068 3067 3066 3065 3064 3063 3062 3061 3060 3059 3058 3057 3056 3056 3056 3056 3055 3055 3055 3054 3054 3053 3053 3052 3052 3052 3052 3052 3052 3052 3052 3053 3053 3054 3055 3055 3056 3056 3056
3069 3068 3067 3066 3065 3064 3063 3062 3061 3060 3059 3059 3058 3056 3055 3054 3054 3053 3053 3052 3052 3051 3051 3050 3050 3049 3049 3048 3048 3047 3047 3047 3047 3047 3048 3048 3049 3049 3050 3050 3051 3051
3069 3067 3066 3065 3064 3063 3062 3061 3060 3059 3058 3057 3056 3055 3054 3053 3052 3051 3050 3049 3049 3048 3047 3047 3046 3045 3045 3044 3044 3043 3043 3043 3042 3042 3043 3043 3043 3044 3044 3044 3045 3045